Time,TemperatureF,DewpointF,PressureIn,WindDirection,WindDirectionDegrees,WindSpeedMPH,WindSpeedGustMPH,Humidity,HourlyPrecipIn,Conditions,Clouds,dailyrainin,SoftwareType,DateUTC
2013-02-24 00:03:00,38.7,17.6,29.28,East,101,0.0,0.0,42,0.00,,,0.00,meteohub,2013-02-24 06:03:00,
2013-02-24 00:08:00,38.5,18.0,29.28,East,101,0.0,0.0,43,0.00,,,0.00,meteohub,2013-02-24 06:08:00,
2013-02-24 00:13:00,38.5,18.5,29.28,East,101,0.0,0.0,44,0.00,,,0.00,meteohub,2013-02-24 06:13:00,
2013-02-24 00:18:00,38.3,18.3,29.28,East,101,0.0,0.0,44,0.00,,,0.00,meteohub,2013-02-24 06:18:00,
2013-02-24 00:23:00,38.1,18.7,29.28,East,101,0.0,0.0,45,0.00,,,0.00,meteohub,2013-02-24 06:23:00,
2013-02-24 00:28:00,38.1,18.7,29.28,East,101,0.0,0.0,45,0.00,,,0.00,meteohub,2013-02-24 06:28:00,
2013-02-24 00:33:00,37.9,18.5,29.28,East,101,0.0,0.0,45,0.00,,,0.00,meteohub,2013-02-24 06:33:00,
2013-02-24 00:38:00,37.9,19.0,29.28,East,101,0.0,0.0,46,0.00,,,0.00,meteohub,2013-02-24 06:38:00,
2013-02-24 00:43:00,37.8,18.9,29.28,East,101,0.0,0.0,46,0.00,,,0.00,meteohub,2013-02-24 06:43:00,
2013-02-24 00:48:00,37.8,19.4,29.28,East,101,0.0,0.0,47,0.00,,,0.00,meteohub,2013-02-24 06:48:00,
2013-02-24 00:53:00,37.8,19.4,29.28,East,101,0.0,0.0,47,0.00,,,0.00,meteohub,2013-02-24 06:53:00,
2013-02-24 00:58:00,37.6,19.2,29.28,East,101,0.0,0.0,47,0.00,,,0.00,meteohub,2013-02-24 06:58:00,
2013-02-24 01:03:00,37.6,19.2,29.28,East,101,0.0,0.0,47,0.00,,,0.00,meteohub,2013-02-24 07:03:00,
2013-02-24 01:08:00,37.4,19.0,29.28,East,101,0.0,0.0,47,0.00,,,0.00,meteohub,2013-02-24 07:08:00,
2013-02-24 01:13:00,37.4,19.6,29.28,East,101,0.0,0.0,48,0.00,,,0.00,meteohub,2013-02-24 07:13:00,
2013-02-24 01:19:00,37.4,19.6,29.28,East,101,0.0,0.0,48,0.00,,,0.00,meteohub,2013-02-24 07:19:00,
2013-02-24 01:24:00,37.4,19.6,29.28,East,101,0.0,0.0,48,0.00,,,0.00,meteohub,2013-02-24 07:24:00,
2013-02-24 01:29:00,37.4,19.6,29.28,East,101,0.0,0.0,48,0.00,,,0.00,meteohub,2013-02-24 07:29:00,
2013-02-24 01:34:00,37.6,20.1,29.28,East,101,0.0,0.0,49,0.00,,,0.00,meteohub,2013-02-24 07:34:00,
2013-02-24 01:39:00,37.4,19.9,29.28,East,101,0.0,0.0,49,0.00,,,0.00,meteohub,2013-02-24 07:39:00,
2013-02-24 01:44:00,37.4,19.9,29.28,East,101,0.0,0.0,49,0.00,,,0.00,meteohub,2013-02-24 07:44:00,
2013-02-24 01:49:00,37.2,19.8,29.28,East,101,0.0,0.0,49,0.00,,,0.00,meteohub,2013-02-24 07:49:00,
2013-02-24 01:54:00,37.0,19.6,29.28,East,101,0.0,0.0,49,0.00,,,0.00,meteohub,2013-02-24 07:54:00,
2013-02-24 01:59:00,37.0,19.6,29.28,East,101,0.0,0.0,49,0.00,,,0.00,meteohub,2013-02-24 07:59:00,
2013-02-24 02:04:00,37.0,19.6,29.28,East,101,0.0,0.0,49,0.00,,,0.00,meteohub,2013-02-24 08:04:00,
2013-02-24 02:09:00,37.0,19.6,29.28,SSE,154,0.0,0.0,49,0.00,,,0.00,meteohub,2013-02-24 08:09:00,
2013-02-24 02:15:00,37.4,19.9,29.28,SSW,207,0.0,0.0,49,0.00,,,0.00,meteohub,2013-02-24 08:15:00,
2013-02-24 02:20:00,37.8,20.3,29.28,SSW,207,0.0,0.0,49,0.00,,,0.00,meteohub,2013-02-24 08:20:00,
2013-02-24 02:25:00,38.3,20.8,29.28,SSW,207,0.0,0.0,49,0.00,,,0.00,meteohub,2013-02-24 08:25:00,
2013-02-24 02:30:00,38.7,20.7,29.28,SSW,207,0.0,0.0,48,0.00,,,0.00,meteohub,2013-02-24 08:30:00,
2013-02-24 02:35:00,39.0,20.5,29.28,SSW,207,0.0,0.0,47,0.00,,,0.00,meteohub,2013-02-24 08:35:00,
2013-02-24 02:40:00,39.2,20.1,29.28,SSW,207,0.0,0.0,46,0.00,,,0.00,meteohub,2013-02-24 08:40:00,
2013-02-24 02:45:00,39.2,19.6,29.28,SSW,207,0.0,0.0,45,0.00,,,0.00,meteohub,2013-02-24 08:45:00,
2013-02-24 02:50:00,39.0,19.4,29.28,SSW,207,0.0,0.0,45,0.00,,,0.00,meteohub,2013-02-24 08:50:00,
2013-02-24 02:55:00,38.8,19.4,29.28,SSW,207,0.0,0.0,45,0.00,,,0.00,meteohub,2013-02-24 08:55:00,
2013-02-24 03:00:00,38.7,19.2,29.28,SSW,207,0.0,0.0,45,0.00,,,0.00,meteohub,2013-02-24 09:00:00,
2013-02-24 03:05:00,38.5,19.0,29.28,SSW,207,0.0,0.0,45,0.00,,,0.00,meteohub,2013-02-24 09:05:00,
2013-02-24 03:10:00,38.1,18.7,29.28,SSW,207,0.0,0.0,45,0.00,,,0.00,meteohub,2013-02-24 09:10:00,
2013-02-24 03:15:00,37.9,18.5,29.25,SSW,207,0.0,0.0,45,0.00,,,0.00,meteohub,2013-02-24 09:15:00,
2013-02-24 03:21:00,37.6,18.1,29.25,SSW,207,0.0,0.0,45,0.00,,,0.00,meteohub,2013-02-24 09:21:00,
2013-02-24 03:26:00,37.4,18.5,29.25,SSW,207,0.0,0.0,46,0.00,,,0.00,meteohub,2013-02-24 09:26:00,
2013-02-24 03:31:00,37.4,18.5,29.25,SSW,207,0.0,0.0,46,0.00,,,0.00,meteohub,2013-02-24 09:31:00,
2013-02-24 03:36:00,37.2,18.9,29.25,SSW,207,0.0,0.0,47,0.00,,,0.00,meteohub,2013-02-24 09:36:00,
2013-02-24 03:41:00,37.0,18.7,29.25,SSW,207,0.0,0.0,47,0.00,,,0.00,meteohub,2013-02-24 09:41:00,
2013-02-24 03:46:00,37.0,19.2,29.25,SSW,207,0.0,0.0,48,0.00,,,0.00,meteohub,2013-02-24 09:46:00,
2013-02-24 03:51:00,36.9,19.0,29.25,SSW,207,0.0,0.0,48,0.00,,,0.00,meteohub,2013-02-24 09:51:00,
2013-02-24 03:56:00,36.7,18.9,29.25,SSW,207,0.0,0.0,48,0.00,,,0.00,meteohub,2013-02-24 09:56:00,
2013-02-24 04:01:00,36.7,19.4,29.25,SSW,207,0.0,0.0,49,0.00,,,0.00,meteohub,2013-02-24 10:01:00,
2013-02-24 04:06:00,36.7,19.4,29.25,SSW,207,0.0,0.0,49,0.00,,,0.00,meteohub,2013-02-24 10:06:00,
2013-02-24 04:11:00,36.7,19.4,29.25,SSW,207,0.0,0.0,49,0.00,,,0.00,meteohub,2013-02-24 10:11:00,
2013-02-24 04:16:00,36.9,19.4,29.25,SSW,207,0.0,0.0,49,0.00,,,0.00,meteohub,2013-02-24 10:16:00,
2013-02-24 04:21:00,36.9,19.9,29.25,SSW,207,0.0,0.0,50,0.00,,,0.00,meteohub,2013-02-24 10:21:00,
2013-02-24 04:26:00,37.0,20.1,29.25,SSW,207,0.0,0.0,50,0.00,,,0.00,meteohub,2013-02-24 10:26:00,
2013-02-24 04:31:00,37.0,20.1,29.25,SSW,207,0.0,0.0,50,0.00,,,0.00,meteohub,2013-02-24 10:31:00,
2013-02-24 04:37:00,37.0,20.1,29.25,SSW,207,0.0,0.0,50,0.00,,,0.00,meteohub,2013-02-24 10:37:00,
2013-02-24 04:42:00,36.9,19.9,29.25,SSW,207,0.0,0.0,50,0.00,,,0.00,meteohub,2013-02-24 10:42:00,
2013-02-24 04:47:00,36.7,19.8,29.25,SSW,207,0.0,0.0,50,0.00,,,0.00,meteohub,2013-02-24 10:47:00,
2013-02-24 04:52:00,36.5,19.6,29.25,SSW,207,0.0,0.0,50,0.00,,,0.00,meteohub,2013-02-24 10:52:00,
2013-02-24 04:57:00,36.3,19.4,29.25,SSW,207,0.0,0.0,50,0.00,,,0.00,meteohub,2013-02-24 10:57:00,
2013-02-24 05:02:00,36.1,19.2,29.25,SSW,207,0.0,0.0,50,0.00,,,0.00,meteohub,2013-02-24 11:02:00,
2013-02-24 05:07:00,36.1,19.2,29.25,SSW,207,0.0,0.0,50,0.00,,,0.00,meteohub,2013-02-24 11:07:00,
2013-02-24 05:12:00,35.8,19.4,29.25,SSW,207,0.0,0.0,51,0.00,,,0.00,meteohub,2013-02-24 11:12:00,
2013-02-24 05:17:00,35.8,19.4,29.25,SSW,207,0.0,0.0,51,0.00,,,0.00,meteohub,2013-02-24 11:17:00,
2013-02-24 05:22:00,35.6,19.2,29.25,SSW,207,0.0,0.0,51,0.00,,,0.00,meteohub,2013-02-24 11:22:00,
2013-02-24 05:27:00,35.4,19.6,29.25,SSW,207,0.0,0.0,52,0.00,,,0.00,meteohub,2013-02-24 11:27:00,
2013-02-24 05:32:00,35.2,19.4,29.25,SSW,207,0.0,0.0,52,0.00,,,0.00,meteohub,2013-02-24 11:32:00,
2013-02-24 05:37:00,35.1,19.2,29.25,SSW,207,0.0,0.0,52,0.00,,,0.00,meteohub,2013-02-24 11:37:00,
2013-02-24 05:42:00,35.1,19.2,29.25,SSW,207,0.0,0.0,52,0.00,,,0.00,meteohub,2013-02-24 11:42:00,
2013-02-24 05:47:00,35.1,19.6,29.25,SSW,207,0.0,0.0,53,0.00,,,0.00,meteohub,2013-02-24 11:47:00,
2013-02-24 05:52:00,35.2,19.8,29.25,SSW,207,0.0,0.0,53,0.00,,,0.00,meteohub,2013-02-24 11:52:00,
2013-02-24 05:57:00,35.1,19.6,29.25,SSW,207,0.0,0.0,53,0.00,,,0.00,meteohub,2013-02-24 11:57:00,
2013-02-24 06:02:00,34.9,19.9,29.25,SSW,207,0.0,0.0,54,0.00,,,0.00,meteohub,2013-02-24 12:02:00,
2013-02-24 06:07:00,34.9,19.9,29.25,SSW,207,0.0,0.0,54,0.00,,,0.00,meteohub,2013-02-24 12:07:00,
2013-02-24 06:12:00,34.9,19.9,29.25,SSW,207,0.0,0.0,54,0.00,,,0.00,meteohub,2013-02-24 12:12:00,
2013-02-24 06:17:00,34.7,19.8,29.28,SSW,207,0.0,0.0,54,0.00,,,0.00,meteohub,2013-02-24 12:17:00,
2013-02-24 06:22:00,34.7,19.8,29.28,SSW,207,0.0,0.0,54,0.00,,,0.00,meteohub,2013-02-24 12:22:00,
2013-02-24 06:27:00,34.5,19.6,29.28,SSW,207,0.0,0.0,54,0.00,,,0.00,meteohub,2013-02-24 12:27:00,
2013-02-24 06:32:00,34.5,19.9,29.28,SSW,207,0.0,0.0,55,0.00,,,0.00,meteohub,2013-02-24 12:32:00,
2013-02-24 06:37:00,34.3,19.8,29.28,SSW,207,0.0,0.0,55,0.00,,,0.00,meteohub,2013-02-24 12:37:00,
2013-02-24 06:42:00,34.5,19.9,29.28,SSW,207,0.0,0.0,55,0.00,,,0.00,meteohub,2013-02-24 12:42:00,
2013-02-24 06:47:00,34.5,19.9,29.25,SSW,207,0.0,0.0,55,0.00,,,0.00,meteohub,2013-02-24 12:47:00,
2013-02-24 06:52:00,34.7,20.7,29.25,SSW,207,0.0,0.0,56,0.00,,,0.00,meteohub,2013-02-24 12:52:00,
2013-02-24 06:57:00,34.9,20.8,29.25,SSW,207,0.0,0.0,56,0.00,,,0.00,meteohub,2013-02-24 12:57:00,
2013-02-24 07:02:00,35.2,21.2,29.25,SSW,207,0.0,0.0,56,0.00,,,0.00,meteohub,2013-02-24 13:02:00,
2013-02-24 07:07:00,35.6,21.4,29.25,SSW,207,0.0,0.0,56,0.00,,,0.00,meteohub,2013-02-24 13:07:00,
2013-02-24 07:12:00,35.6,21.4,29.25,SSW,207,0.0,0.0,56,0.00,,,0.00,meteohub,2013-02-24 13:12:00,
2013-02-24 07:17:00,36.0,21.7,29.25,SSW,206,0.0,0.0,56,0.00,,,0.00,meteohub,2013-02-24 13:17:00,
2013-02-24 07:23:00,36.3,22.1,29.25,SSW,207,0.0,0.0,56,0.00,,,0.00,meteohub,2013-02-24 13:23:00,
2013-02-24 07:28:00,36.9,22.6,29.28,SSW,207,0.0,0.0,56,0.00,,,0.00,meteohub,2013-02-24 13:28:00,
2013-02-24 07:33:00,37.2,23.0,29.28,SSW,207,0.0,0.0,56,0.00,,,0.00,meteohub,2013-02-24 13:33:00,
2013-02-24 07:38:00,37.8,23.0,29.28,SSW,207,0.0,0.0,55,0.00,,,0.00,meteohub,2013-02-24 13:38:00,
2013-02-24 07:43:00,38.3,23.5,29.28,SSW,207,0.0,0.0,55,0.00,,,0.00,meteohub,2013-02-24 13:43:00,
2013-02-24 07:48:00,38.8,23.5,29.28,SE,130,3.0,0.0,54,0.00,,,0.00,meteohub,2013-02-24 13:48:00,
2013-02-24 07:53:00,39.2,23.5,29.28,SSW,212,0.0,0.0,53,0.00,,,0.00,meteohub,2013-02-24 13:53:00,
2013-02-24 07:58:00,39.7,23.5,29.28,SSW,209,0.0,3.0,52,0.00,,,0.00,meteohub,2013-02-24 13:58:00,
2013-02-24 08:03:00,40.5,23.7,29.28,SSE,152,2.0,3.0,51,0.00,,,0.00,meteohub,2013-02-24 14:03:00,
2013-02-24 08:09:00,41.0,23.7,29.28,WSW,250,0.0,2.0,50,0.00,,,0.00,meteohub,2013-02-24 14:09:00,
2013-02-24 08:14:00,42.1,24.3,29.28,South,189,0.0,3.0,49,0.00,,,0.00,meteohub,2013-02-24 14:14:00,
2013-02-24 08:19:00,43.0,25.2,29.28,SW,217,0.0,3.0,49,0.00,,,0.00,meteohub,2013-02-24 14:19:00,
2013-02-24 08:24:00,43.9,25.5,29.28,SSW,208,0.0,3.0,48,0.00,,,0.00,meteohub,2013-02-24 14:24:00,
2013-02-24 08:29:00,44.4,25.0,29.28,SW,225,0.0,4.0,46,0.00,,,0.00,meteohub,2013-02-24 14:29:00,
2013-02-24 08:34:00,45.1,24.4,29.28,South,188,0.0,4.0,44,0.00,,,0.00,meteohub,2013-02-24 14:34:00,
2013-02-24 08:39:00,45.9,25.2,29.28,SSW,194,0.0,4.0,44,0.00,,,0.00,meteohub,2013-02-24 14:39:00,
2013-02-24 08:44:00,46.4,25.2,29.28,SSE,164,0.0,4.0,43,0.00,,,0.00,meteohub,2013-02-24 14:44:00,
2013-02-24 08:50:00,46.9,25.5,29.28,SW,220,3.0,4.0,43,0.00,,,0.00,meteohub,2013-02-24 14:50:00,
2013-02-24 08:55:00,47.7,26.2,29.28,SW,236,0.0,5.0,43,0.00,,,0.00,meteohub,2013-02-24 14:55:00,
2013-02-24 09:00:00,48.4,27.0,29.28,SSW,213,2.0,5.0,43,0.00,,,0.00,meteohub,2013-02-24 15:00:00,
2013-02-24 09:05:00,49.3,27.1,29.28,South,182,0.0,4.0,42,0.00,,,0.00,meteohub,2013-02-24 15:05:00,
2013-02-24 09:10:00,50.2,28.0,29.28,South,191,0.0,4.0,42,0.00,,,0.00,meteohub,2013-02-24 15:10:00,
2013-02-24 09:15:00,51.3,28.9,29.28,SSW,211,6.0,6.0,42,0.00,,,0.00,meteohub,2013-02-24 15:15:00,
2013-02-24 09:20:00,52.0,29.7,29.28,SSE,152,3.0,6.0,42,0.00,,,0.00,meteohub,2013-02-24 15:20:00,
2013-02-24 09:25:00,52.5,29.5,29.28,SW,236,3.0,6.0,41,0.00,,,0.00,meteohub,2013-02-24 15:25:00,
2013-02-24 09:30:00,53.2,30.2,29.28,ESE,118,3.0,6.0,41,0.00,,,0.00,meteohub,2013-02-24 15:30:00,
2013-02-24 09:35:00,53.8,30.0,29.28,WSW,239,8.0,8.0,40,0.00,,,0.00,meteohub,2013-02-24 15:35:00,
2013-02-24 09:40:00,54.0,30.2,29.28,SSE,156,4.0,8.0,40,0.00,,,0.00,meteohub,2013-02-24 15:40:00,
2013-02-24 09:46:00,54.3,29.8,29.28,South,186,4.0,9.0,39,0.00,,,0.00,meteohub,2013-02-24 15:46:00,
2013-02-24 09:51:00,54.7,30.2,29.28,SE,130,4.0,9.0,39,0.00,,,0.00,meteohub,2013-02-24 15:51:00,
2013-02-24 09:56:00,55.2,30.7,29.28,SW,218,4.0,6.0,39,0.00,,,0.00,meteohub,2013-02-24 15:56:00,
2013-02-24 10:01:00,55.6,30.4,29.28,SW,235,3.0,12.0,38,0.00,,,0.00,meteohub,2013-02-24 16:01:00,
2013-02-24 10:06:00,55.9,30.7,29.28,South,189,0.0,12.0,38,0.00,,,0.00,meteohub,2013-02-24 16:06:00,
2013-02-24 10:11:00,56.1,30.9,29.28,South,183,4.0,12.0,38,0.00,,,0.00,meteohub,2013-02-24 16:11:00,
2013-02-24 10:16:00,56.5,31.1,29.28,South,185,4.0,7.0,38,0.00,,,0.00,meteohub,2013-02-24 16:16:00,
2013-02-24 10:21:00,56.7,31.3,29.28,ESE,119,3.0,8.0,38,0.00,,,0.00,meteohub,2013-02-24 16:21:00,
2013-02-24 10:26:00,57.0,30.9,29.28,SW,217,3.0,9.0,37,0.00,,,0.00,meteohub,2013-02-24 16:26:00,
2013-02-24 10:31:00,57.6,31.5,29.28,WNW,299,3.0,11.0,37,0.00,,,0.00,meteohub,2013-02-24 16:31:00,
2013-02-24 10:36:00,58.1,32.0,29.28,SW,224,6.0,11.0,37,0.00,,,0.00,meteohub,2013-02-24 16:36:00,
2013-02-24 10:41:00,58.6,31.8,29.28,NW,304,6.0,6.0,36,0.00,,,0.00,meteohub,2013-02-24 16:41:00,
2013-02-24 10:46:00,59.0,32.0,29.28,SW,232,2.0,6.0,36,0.00,,,0.00,meteohub,2013-02-24 16:46:00,
2013-02-24 10:51:00,59.4,32.4,29.28,South,188,6.0,8.0,36,0.00,,,0.00,meteohub,2013-02-24 16:51:00,
2013-02-24 10:57:00,59.9,32.2,29.28,SW,219,4.0,9.0,35,0.00,,,0.00,meteohub,2013-02-24 16:57:00,
2013-02-24 11:02:00,60.1,32.4,29.25,WSW,247,3.0,9.0,35,0.00,,,0.00,meteohub,2013-02-24 17:02:00,
2013-02-24 11:07:00,60.3,32.5,29.25,SSW,212,6.0,9.0,35,0.00,,,0.00,meteohub,2013-02-24 17:07:00,
2013-02-24 11:12:00,60.6,32.9,29.25,SW,222,3.0,8.0,35,0.00,,,0.00,meteohub,2013-02-24 17:12:00,
2013-02-24 11:17:00,61.2,32.5,29.25,SW,233,3.0,8.0,34,0.00,,,0.00,meteohub,2013-02-24 17:17:00,
2013-02-24 11:22:00,61.7,33.1,29.25,SSW,212,4.0,8.0,34,0.00,,,0.00,meteohub,2013-02-24 17:22:00,
2013-02-24 11:27:00,62.1,33.4,29.25,WSW,254,4.0,6.0,34,0.00,,,0.00,meteohub,2013-02-24 17:27:00,
2013-02-24 11:32:00,62.4,32.9,29.25,West,263,3.0,6.0,33,0.00,,,0.00,meteohub,2013-02-24 17:32:00,
2013-02-24 11:37:00,63.1,32.0,29.25,SSW,200,3.0,6.0,31,0.00,,,0.00,meteohub,2013-02-24 17:37:00,
2013-02-24 11:42:00,63.5,30.7,29.25,SSW,200,6.0,7.0,29,0.00,,,0.00,meteohub,2013-02-24 17:42:00,
2013-02-24 11:47:00,63.5,29.8,29.25,SW,231,4.0,8.0,28,0.00,,,0.00,meteohub,2013-02-24 17:47:00,
2013-02-24 11:52:00,63.7,30.0,29.25,WSW,255,2.0,8.0,28,0.00,,,0.00,meteohub,2013-02-24 17:52:00,
2013-02-24 11:57:00,64.0,31.1,29.25,SW,232,3.0,8.0,29,0.00,,,0.00,meteohub,2013-02-24 17:57:00,
2013-02-24 12:02:00,64.4,30.6,29.22,SW,230,3.0,8.0,28,0.00,,,0.00,meteohub,2013-02-24 18:02:00,
2013-02-24 12:07:00,64.8,30.0,29.22,SSE,147,3.0,8.0,27,0.00,,,0.00,meteohub,2013-02-24 18:07:00,
2013-02-24 12:12:00,64.8,30.0,29.22,South,172,2.0,6.0,27,0.00,,,0.00,meteohub,2013-02-24 18:12:00,
2013-02-24 12:17:00,65.3,29.5,29.22,SSW,209,2.0,6.0,26,0.00,,,0.00,meteohub,2013-02-24 18:17:00,
2013-02-24 12:22:00,65.7,29.8,29.22,West,261,4.0,8.0,26,0.00,,,0.00,meteohub,2013-02-24 18:22:00,
2013-02-24 12:27:00,65.7,29.8,29.22,SW,233,3.0,8.0,26,0.00,,,0.00,meteohub,2013-02-24 18:27:00,
2013-02-24 12:32:00,65.8,30.0,29.22,SSW,199,3.0,8.0,26,0.00,,,0.00,meteohub,2013-02-24 18:32:00,
2013-02-24 12:37:00,65.7,29.8,29.22,SSE,168,0.0,8.0,26,0.00,,,0.00,meteohub,2013-02-24 18:37:00,
2013-02-24 12:42:00,65.8,30.0,29.22,SW,233,3.0,6.0,26,0.00,,,0.00,meteohub,2013-02-24 18:42:00,
2013-02-24 12:47:00,65.8,30.0,29.19,SW,236,2.0,6.0,26,0.00,,,0.00,meteohub,2013-02-24 18:47:00,
2013-02-24 12:52:00,66.4,29.5,29.19,WSW,253,3.0,7.0,25,0.00,,,0.00,meteohub,2013-02-24 18:52:00,
2013-02-24 12:57:00,66.6,28.6,29.19,West,273,3.0,9.0,24,0.00,,,0.00,meteohub,2013-02-24 18:57:00,
2013-02-24 13:02:00,66.7,28.8,29.19,West,265,3.0,9.0,24,0.00,,,0.00,meteohub,2013-02-24 19:02:00,
2013-02-24 13:07:00,66.7,28.8,29.19,South,169,6.0,9.0,24,0.00,,,0.00,meteohub,2013-02-24 19:07:00,
2013-02-24 13:12:00,66.6,28.6,29.19,SSW,210,5.0,8.0,24,0.00,,,0.00,meteohub,2013-02-24 19:12:00,
2013-02-24 13:17:00,66.7,28.8,29.16,WSW,237,5.0,8.0,24,0.00,,,0.00,meteohub,2013-02-24 19:17:00,
2013-02-24 13:22:00,66.9,28.9,29.16,SW,234,3.0,8.0,24,0.00,,,0.00,meteohub,2013-02-24 19:22:00,
2013-02-24 13:27:00,67.1,29.1,29.16,North,0,4.0,8.0,24,0.00,,,0.00,meteohub,2013-02-24 19:27:00,
2013-02-24 13:32:00,67.5,29.5,29.16,SE,138,2.0,8.0,24,0.00,,,0.00,meteohub,2013-02-24 19:32:00,
2013-02-24 13:37:00,67.8,29.7,29.16,SW,227,4.0,9.0,24,0.00,,,0.00,meteohub,2013-02-24 19:37:00,
2013-02-24 13:42:00,68.0,28.8,29.13,South,180,6.0,10.0,23,0.00,,,0.00,meteohub,2013-02-24 19:42:00,
2013-02-24 13:47:00,68.0,28.8,29.13,WNW,283,5.0,10.0,23,0.00,,,0.00,meteohub,2013-02-24 19:47:00,
2013-02-24 13:52:00,68.2,28.9,29.13,SSE,159,3.0,10.0,23,0.00,,,0.00,meteohub,2013-02-24 19:52:00,
2013-02-24 13:57:00,68.4,29.1,29.10,South,183,3.0,8.0,23,0.00,,,0.00,meteohub,2013-02-24 19:57:00,
2013-02-24 14:02:00,68.5,29.3,29.10,SSE,160,3.0,8.0,23,0.00,,,0.00,meteohub,2013-02-24 20:02:00,
2013-02-24 14:07:00,68.7,29.5,29.10,WNW,301,5.0,9.0,23,0.00,,,0.00,meteohub,2013-02-24 20:07:00,
2013-02-24 14:13:00,68.9,29.7,29.13,ESE,116,3.0,9.0,23,0.00,,,0.00,meteohub,2013-02-24 20:13:00,
2013-02-24 14:18:00,69.1,29.7,29.13,SE,139,3.0,9.0,23,0.00,,,0.00,meteohub,2013-02-24 20:18:00,
2013-02-24 14:23:00,69.3,29.8,29.13,SSW,199,4.0,8.0,23,0.00,,,0.00,meteohub,2013-02-24 20:23:00,
2013-02-24 14:28:00,69.1,29.7,29.10,WSW,242,3.0,10.0,23,0.00,,,0.00,meteohub,2013-02-24 20:28:00,
2013-02-24 14:33:00,69.3,29.8,29.10,SE,145,4.0,10.0,23,0.00,,,0.00,meteohub,2013-02-24 20:33:00,
2013-02-24 14:38:00,69.4,30.0,29.10,SW,235,5.0,10.0,23,0.00,,,0.00,meteohub,2013-02-24 20:38:00,
2013-02-24 14:43:00,69.1,29.7,29.10,SSE,167,4.0,6.0,23,0.00,,,0.00,meteohub,2013-02-24 20:43:00,
2013-02-24 14:48:00,68.7,29.5,29.10,South,191,3.0,7.0,23,0.00,,,0.00,meteohub,2013-02-24 20:48:00,
2013-02-24 14:53:00,68.7,29.5,29.10,SW,225,7.0,7.0,23,0.00,,,0.00,meteohub,2013-02-24 20:53:00,
2013-02-24 14:58:00,68.5,29.3,29.10,SE,136,3.0,8.0,23,0.00,,,0.00,meteohub,2013-02-24 20:58:00,
2013-02-24 15:03:00,68.5,29.3,29.10,WNW,286,3.0,8.0,23,0.00,,,0.00,meteohub,2013-02-24 21:03:00,
2013-02-24 15:08:00,68.7,29.5,29.10,ENE,76,6.0,8.0,23,0.00,,,0.00,meteohub,2013-02-24 21:08:00,
2013-02-24 15:13:00,68.7,29.5,29.07,SW,231,6.0,8.0,23,0.00,,,0.00,meteohub,2013-02-24 21:13:00,
2013-02-24 15:18:00,68.7,29.5,29.07,SE,126,3.0,6.0,23,0.00,,,0.00,meteohub,2013-02-24 21:18:00,
2013-02-24 15:23:00,68.5,29.3,29.07,WSW,246,4.0,6.0,23,0.00,,,0.00,meteohub,2013-02-24 21:23:00,
2013-02-24 15:28:00,68.4,29.1,29.07,SSE,159,3.0,6.0,23,0.00,,,0.00,meteohub,2013-02-24 21:28:00,
2013-02-24 15:33:00,68.2,28.9,29.07,SW,219,5.0,8.0,23,0.00,,,0.00,meteohub,2013-02-24 21:33:00,
2013-02-24 15:39:00,68.4,29.1,29.07,South,176,6.0,8.0,23,0.00,,,0.00,meteohub,2013-02-24 21:39:00,
2013-02-24 15:44:00,68.4,29.1,29.07,West,260,6.0,8.0,23,0.00,,,0.00,meteohub,2013-02-24 21:44:00,
2013-02-24 15:49:00,68.4,29.1,29.07,SSW,196,3.0,8.0,23,0.00,,,0.00,meteohub,2013-02-24 21:49:00,
2013-02-24 15:54:00,68.5,29.3,29.07,West,265,3.0,8.0,23,0.00,,,0.00,meteohub,2013-02-24 21:54:00,
2013-02-24 15:59:00,68.7,29.5,29.07,SSW,198,3.0,8.0,23,0.00,,,0.00,meteohub,2013-02-24 21:59:00,
2013-02-24 16:04:00,68.7,29.5,29.07,NNE,28,3.0,7.0,23,0.00,,,0.00,meteohub,2013-02-24 22:04:00,
2013-02-24 16:09:00,68.9,29.7,29.07,WSW,252,3.0,8.0,23,0.00,,,0.00,meteohub,2013-02-24 22:09:00,
2013-02-24 16:14:00,69.1,29.7,29.07,SSW,207,5.0,8.0,23,0.00,,,0.00,meteohub,2013-02-24 22:14:00,
2013-02-24 16:19:00,69.1,29.7,29.07,SW,218,6.0,6.0,23,0.00,,,0.00,meteohub,2013-02-24 22:19:00,
2013-02-24 16:24:00,68.9,29.7,29.07,SSW,208,0.0,8.0,23,0.00,,,0.00,meteohub,2013-02-24 22:24:00,
2013-02-24 16:29:00,68.9,29.7,29.07,ESE,108,2.0,8.0,23,0.00,,,0.00,meteohub,2013-02-24 22:29:00,
2013-02-24 16:34:00,68.7,29.5,29.07,SW,219,3.0,8.0,23,0.00,,,0.00,meteohub,2013-02-24 22:34:00,
2013-02-24 16:39:00,68.7,29.5,29.07,South,190,0.0,8.0,23,0.00,,,0.00,meteohub,2013-02-24 22:39:00,
2013-02-24 16:44:00,68.7,29.5,29.07,West,260,4.0,8.0,23,0.00,,,0.00,meteohub,2013-02-24 22:44:00,
2013-02-24 16:49:00,68.7,29.5,29.07,West,281,4.0,8.0,23,0.00,,,0.00,meteohub,2013-02-24 22:49:00,
2013-02-24 16:54:00,68.7,29.5,29.07,South,171,3.0,8.0,23,0.00,,,0.00,meteohub,2013-02-24 22:54:00,
2013-02-24 16:59:00,68.7,29.5,29.07,South,188,3.0,11.0,23,0.00,,,0.00,meteohub,2013-02-24 22:59:00,
2013-02-24 17:04:00,68.5,29.3,29.07,SW,224,4.0,11.0,23,0.00,,,0.00,meteohub,2013-02-24 23:04:00,
2013-02-24 17:09:00,68.4,29.1,29.07,ESE,118,6.0,11.0,23,0.00,,,0.00,meteohub,2013-02-24 23:09:00,
2013-02-24 17:15:00,68.4,29.1,29.07,WSW,237,3.0,9.0,23,0.00,,,0.00,meteohub,2013-02-24 23:15:00,
2013-02-24 17:20:00,68.4,29.1,29.07,SSW,209,4.0,9.0,23,0.00,,,0.00,meteohub,2013-02-24 23:20:00,
2013-02-24 17:25:00,68.2,28.9,29.07,SSW,212,6.0,9.0,23,0.00,,,0.00,meteohub,2013-02-24 23:25:00,
2013-02-24 17:30:00,68.2,27.9,29.07,SSE,167,4.0,8.0,22,0.00,,,0.00,meteohub,2013-02-24 23:30:00,
2013-02-24 17:35:00,68.0,27.7,29.07,SE,143,5.0,9.0,22,0.00,,,0.00,meteohub,2013-02-24 23:35:00,
2013-02-24 17:40:00,68.0,27.7,29.07,SSW,201,3.0,9.0,22,0.00,,,0.00,meteohub,2013-02-24 23:40:00,
2013-02-24 17:45:00,67.8,28.6,29.07,SW,230,3.0,9.0,23,0.00,,,0.00,meteohub,2013-02-24 23:45:00,
2013-02-24 17:50:00,67.8,28.6,29.07,South,179,3.0,7.0,23,0.00,,,0.00,meteohub,2013-02-24 23:50:00,
2013-02-24 17:55:00,67.6,28.6,29.07,SE,145,4.0,7.0,23,0.00,,,0.00,meteohub,2013-02-24 23:55:00,
2013-02-24 18:00:00,67.3,28.2,29.07,SW,231,4.0,6.0,23,0.00,,,0.00,meteohub,2013-02-25 00:00:00,
2013-02-24 18:05:00,67.1,28.0,29.07,SW,220,3.0,6.0,23,0.00,,,0.00,meteohub,2013-02-25 00:05:00,
2013-02-24 18:10:00,66.7,27.7,29.07,SE,143,0.0,5.0,23,0.00,,,0.00,meteohub,2013-02-25 00:10:00,
2013-02-24 18:15:00,66.6,27.7,29.07,South,178,0.0,5.0,23,0.00,,,0.00,meteohub,2013-02-25 00:15:00,
2013-02-24 18:20:00,66.2,27.3,29.07,South,182,0.0,4.0,23,0.00,,,0.00,meteohub,2013-02-25 00:20:00,
2013-02-24 18:25:00,65.8,27.0,29.07,West,266,0.0,4.0,23,0.00,,,0.00,meteohub,2013-02-25 00:25:00,
2013-02-24 18:30:00,65.7,26.8,29.07,SSW,199,2.0,6.0,23,0.00,,,0.00,meteohub,2013-02-25 00:30:00,
2013-02-24 18:35:00,65.5,26.8,29.07,SE,144,0.0,6.0,23,0.00,,,0.00,meteohub,2013-02-25 00:35:00,
2013-02-24 18:41:00,65.1,26.4,29.07,ENE,78,0.0,6.0,23,0.00,,,0.00,meteohub,2013-02-25 00:41:00,
2013-02-24 18:46:00,64.8,26.1,29.07,SSE,158,0.0,6.0,23,0.00,,,0.00,meteohub,2013-02-25 00:46:00,
2013-02-24 18:51:00,64.4,25.7,29.07,SSE,149,0.0,0.0,23,0.00,,,0.00,meteohub,2013-02-25 00:51:00,
2013-02-24 18:56:00,64.2,26.6,29.07,SSE,151,0.0,3.0,24,0.00,,,0.00,meteohub,2013-02-25 00:56:00,
2013-02-24 19:01:00,63.9,26.4,29.07,SSW,200,0.0,3.0,24,0.00,,,0.00,meteohub,2013-02-25 01:01:00,
2013-02-24 19:06:00,63.7,26.2,29.07,SSW,200,0.0,3.0,24,0.00,,,0.00,meteohub,2013-02-25 01:06:00,
2013-02-24 19:11:00,63.5,26.1,29.07,East,97,0.0,3.0,24,0.00,,,0.00,meteohub,2013-02-25 01:11:00,
2013-02-24 19:16:00,63.3,25.9,29.07,SSE,162,0.0,3.0,24,0.00,,,0.00,meteohub,2013-02-25 01:16:00,
2013-02-24 19:21:00,63.1,25.7,29.07,South,177,0.0,3.0,24,0.00,,,0.00,meteohub,2013-02-25 01:21:00,
2013-02-24 19:26:00,63.1,25.7,29.07,SSE,148,3.0,5.0,24,0.00,,,0.00,meteohub,2013-02-25 01:26:00,
2013-02-24 19:31:00,63.1,25.7,29.07,SSW,200,0.0,5.0,24,0.00,,,0.00,meteohub,2013-02-25 01:31:00,
2013-02-24 19:36:00,63.0,25.5,29.07,SW,220,3.0,5.0,24,0.00,,,0.00,meteohub,2013-02-25 01:36:00,
2013-02-24 19:41:00,63.0,25.5,29.07,South,190,4.0,5.0,24,0.00,,,0.00,meteohub,2013-02-25 01:41:00,
2013-02-24 19:46:00,63.0,25.5,29.07,SSW,198,0.0,5.0,24,0.00,,,0.00,meteohub,2013-02-25 01:46:00,
2013-02-24 19:51:00,62.8,25.5,29.07,South,190,3.0,5.0,24,0.00,,,0.00,meteohub,2013-02-25 01:51:00,
2013-02-24 19:57:00,62.8,25.5,29.07,SSW,197,2.0,5.0,24,0.00,,,0.00,meteohub,2013-02-25 01:57:00,
2013-02-24 20:02:00,62.6,25.3,29.07,SSW,198,0.0,5.0,24,0.00,,,0.00,meteohub,2013-02-25 02:02:00,
2013-02-24 20:07:00,62.4,25.2,29.07,ESE,106,0.0,5.0,24,0.00,,,0.00,meteohub,2013-02-25 02:07:00,
2013-02-24 20:12:00,62.2,26.1,29.07,SSE,158,0.0,4.0,25,0.00,,,0.00,meteohub,2013-02-25 02:12:00,
2013-02-24 20:17:00,62.2,26.1,29.07,SSW,200,2.0,4.0,25,0.00,,,0.00,meteohub,2013-02-25 02:17:00,
2013-02-24 20:22:00,62.2,26.1,29.07,SSW,204,0.0,4.0,25,0.00,,,0.00,meteohub,2013-02-25 02:22:00,
2013-02-24 20:27:00,62.1,25.9,29.07,WSW,241,0.0,4.0,25,0.00,,,0.00,meteohub,2013-02-25 02:27:00,
2013-02-24 20:32:00,61.9,25.7,29.07,SSE,162,0.0,4.0,25,0.00,,,0.00,meteohub,2013-02-25 02:32:00,
2013-02-24 20:37:00,61.7,25.5,29.07,South,182,0.0,4.0,25,0.00,,,0.00,meteohub,2013-02-25 02:37:00,
2013-02-24 20:42:00,61.5,25.3,29.07,SSW,199,0.0,5.0,25,0.00,,,0.00,meteohub,2013-02-25 02:42:00,
2013-02-24 20:47:00,61.3,25.2,29.07,SSE,150,0.0,5.0,25,0.00,,,0.00,meteohub,2013-02-25 02:47:00,
2013-02-24 20:52:00,61.0,25.0,29.07,SSE,149,0.0,5.0,25,0.00,,,0.00,meteohub,2013-02-25 02:52:00,
2013-02-24 20:57:00,60.6,24.6,29.07,SSE,149,0.0,0.0,25,0.00,,,0.00,meteohub,2013-02-25 02:57:00,
2013-02-24 21:02:00,60.4,24.4,29.07,SSE,149,0.0,0.0,25,0.00,,,0.00,meteohub,2013-02-25 03:02:00,
2013-02-24 21:07:00,60.1,24.1,29.07,SSE,149,0.0,0.0,25,0.00,,,0.00,meteohub,2013-02-25 03:07:00,
2013-02-24 21:12:00,59.7,23.9,29.07,SSE,149,0.0,0.0,25,0.00,,,0.00,meteohub,2013-02-25 03:12:00,
2013-02-24 21:17:00,59.4,23.5,29.07,SSE,149,0.0,0.0,25,0.00,,,0.00,meteohub,2013-02-25 03:17:00,
2013-02-24 21:22:00,59.2,24.3,29.07,South,191,0.0,0.0,26,0.00,,,0.00,meteohub,2013-02-25 03:22:00,
2013-02-24 21:27:00,59.2,24.3,29.07,South,191,0.0,0.0,26,0.00,,,0.00,meteohub,2013-02-25 03:27:00,
2013-02-24 21:32:00,59.0,24.1,29.07,SSW,208,0.0,0.0,26,0.00,,,0.00,meteohub,2013-02-25 03:32:00,
2013-02-24 21:37:00,58.8,24.1,29.07,SSW,208,0.0,2.0,26,0.00,,,0.00,meteohub,2013-02-25 03:37:00,
2013-02-24 21:42:00,58.6,24.8,29.07,SE,129,0.0,2.0,27,0.00,,,0.00,meteohub,2013-02-25 03:42:00,
2013-02-24 21:47:00,58.5,24.6,29.07,SE,129,0.0,3.0,27,0.00,,,0.00,meteohub,2013-02-25 03:47:00,
2013-02-24 21:52:00,58.1,24.3,29.07,SE,129,0.0,3.0,27,0.00,,,0.00,meteohub,2013-02-25 03:52:00,
2013-02-24 21:57:00,57.9,24.1,29.07,SE,130,0.0,3.0,27,0.00,,,0.00,meteohub,2013-02-25 03:57:00,
2013-02-24 22:02:00,57.9,25.0,29.07,South,187,0.0,0.0,28,0.00,,,0.00,meteohub,2013-02-25 04:02:00,
2013-02-24 22:07:00,57.9,25.0,29.07,SSE,155,0.0,0.0,28,0.00,,,0.00,meteohub,2013-02-25 04:07:00,
2013-02-24 22:12:00,57.9,25.9,29.07,South,177,0.0,0.0,29,0.00,,,0.00,meteohub,2013-02-25 04:12:00,
2013-02-24 22:17:00,57.9,25.9,29.07,SSE,153,0.0,0.0,29,0.00,,,0.00,meteohub,2013-02-25 04:17:00,
2013-02-24 22:22:00,57.9,25.9,29.07,South,185,0.0,0.0,29,0.00,,,0.00,meteohub,2013-02-25 04:22:00,
2013-02-24 22:27:00,58.1,26.8,29.07,SSW,208,4.0,6.0,30,0.00,,,0.00,meteohub,2013-02-25 04:27:00,
2013-02-24 22:32:00,58.1,26.8,29.04,South,173,3.0,6.0,30,0.00,,,0.00,meteohub,2013-02-25 04:32:00,
2013-02-24 22:37:00,58.3,27.9,29.04,SE,139,2.0,6.0,31,0.00,,,0.00,meteohub,2013-02-25 04:37:00,
2013-02-24 22:42:00,58.5,28.8,29.04,SSW,195,3.0,5.0,32,0.00,,,0.00,meteohub,2013-02-25 04:42:00,
2013-02-24 22:47:00,58.6,28.9,29.04,South,176,4.0,8.0,32,0.00,,,0.00,meteohub,2013-02-25 04:47:00,
2013-02-24 22:52:00,58.8,29.8,29.04,SSW,211,3.0,8.0,33,0.00,,,0.00,meteohub,2013-02-25 04:52:00,
2013-02-24 22:57:00,58.8,29.8,29.04,SE,140,3.0,8.0,33,0.00,,,0.00,meteohub,2013-02-25 04:57:00,
2013-02-24 23:00:00,58.6,29.7,29.01,SE,146,4.0,8.0,33,0.00,,,0.00,meteohub,2013-02-25 05:00:00,
2013-02-24 23:02:00,58.8,29.8,29.01,SE,132,0.0,8.0,33,0.00,,,0.00,meteohub,2013-02-25 05:02:00,
2013-02-24 23:03:00,58.8,29.8,29.01,East,92,3.0,8.0,33,0.00,,,0.00,meteohub,2013-02-25 05:03:00,
2013-02-24 23:08:00,58.8,30.6,29.01,South,170,2.0,6.0,34,0.00,,,0.00,meteohub,2013-02-25 05:08:00,
2013-02-24 23:13:00,58.8,30.6,29.01,South,183,2.0,6.0,34,0.00,,,0.00,meteohub,2013-02-25 05:13:00,
2013-02-24 23:18:00,58.8,30.6,29.01,SW,231,0.0,6.0,34,0.00,,,0.00,meteohub,2013-02-25 05:18:00,
2013-02-24 23:23:00,58.8,30.6,29.01,SW,229,3.0,5.0,34,0.00,,,0.00,meteohub,2013-02-25 05:23:00,
2013-02-24 23:28:00,58.8,31.3,28.98,South,176,6.0,7.0,35,0.00,,,0.00,meteohub,2013-02-25 05:28:00,
2013-02-24 23:33:00,58.6,31.1,28.98,ENE,75,2.0,8.0,35,0.00,,,0.00,meteohub,2013-02-25 05:33:00,
2013-02-24 23:38:00,58.6,31.1,28.98,WSW,239,4.0,8.0,35,0.00,,,0.00,meteohub,2013-02-25 05:38:00,
2013-02-24 23:43:00,58.6,31.1,28.98,South,178,5.0,6.0,35,0.00,,,0.00,meteohub,2013-02-25 05:43:00,
2013-02-24 23:48:00,58.6,31.1,28.98,SSW,207,3.0,8.0,35,0.00,,,0.00,meteohub,2013-02-25 05:48:00,
2013-02-24 23:54:00,58.6,31.1,28.98,SE,126,2.0,8.0,35,0.00,,,0.00,meteohub,2013-02-25 05:54:00,
2013-02-24 23:59:00,58.6,31.1,28.95,South,186,6.0,8.0,35,0.00,,,0.00,meteohub,2013-02-25 05:59:00,